1. Oktober 2022

Uhrzeit Code Wetter Temp. Sichtweite Wolkendecke Wind METAR/SPECI
05:55
M
12 °C 10 km+ 1.000 ft Var Var 35 kt METAR EHMA 010355Z AUTO VRB35KT 9999 -RA FEW008 BKN010 BKN013 FEW015CB 12/11 Q0995 RERA
05:25
M
12 °C 10 km+ 1.000 ft 200° 200° 31 kt METAR EHMA 010325Z AUTO 20031KT 180V250 9999 FEW007 SCT009 BKN010 FEW015CB 12/11 Q0995 RE//
04:55
L
11 °C 0 m 1.000 ft 190° 190° 35 kt METAR EHMA 010255Z AUTO 19035KT //// // FEW005 SCT009 BKN010 FEW015CB 11/10 Q0995
04:25
I
11 °C 4,1 km 1.700 ft 180° 180° 35 kt METAR EHMA 010225Z AUTO 18035KT 4100 -SHRA FEW005 SCT011 FEW015CB BKN017 11/10 Q0995 RERA
03:55
L
11 °C 0 m - 180° 180° 36 kt METAR EHMA 010155Z AUTO 18036KT //// // FEW002 FEW015CB SCT044 11/10 Q0996 RE//
03:25
L
11 °C 0 m 3.700 ft 190° 190° 39 kt METAR EHMA 010125Z AUTO 19039KT //// // FEW002 FEW015CB SCT016 BKN037 11/10 Q0997 RERA
02:55
L
11 °C 0 m 1.600 ft 190° 190° 35 kt METAR EHMA 010055Z AUTO 19035KT //// SHRA FEW009 SCT011 FEW015CB BKN016 11/10 Q0998
02:25
I
11 °C 2,5 km 4.000 ft 190° 190° 32 kt METAR EHMA 010025Z AUTO 19032KT 2500 SHRA FEW009 FEW015CB BKN040 BKN047 11/10 Q0998
01:55
I
12 °C 2,7 km - 190° 190° 33 kt METAR EHMA 302355Z AUTO 19033KT 2700 SHRA FEW015CB 12/10 Q0999
01:25
I
12 °C 3,1 km - 190° 190° 32 kt METAR EHMA 302325Z AUTO 19032KT 3100 SHRA FEW015CB 12/10 Q1000
00:55
I
12 °C 3 km - 190° 190° 31 kt METAR EHMA 302255Z AUTO 19031KT 3000 -RA FEW043 12/10 Q1000
00:25
I
13 °C 4 km - 200° 200° 31 kt METAR EHMA 302225Z AUTO 20031KT 4000 -SHRA SCT033 SCT041 13/09 Q1001

30. September 2022

Uhrzeit Code Wetter Temp. Sichtweite Wolkendecke Wind METAR/SPECI
23:55
I
13 °C 4,7 km 3.900 ft 190° 190° 31 kt METAR EHMA 302155Z AUTO 19031KT 4700 -SHRA FEW016CB BKN039 BKN047 13/09 Q1001
23:25
M
14 °C 7 km 4.800 ft 190° 190° 32 kt METAR EHMA 302125Z AUTO 19032KT 7000 -RA FEW040 BKN048 14/09 Q1001 RERA REDZ
22:55
V
14 °C 10 km+ - 190° 190° 33 kt METAR EHMA 302055Z AUTO 19033KT 9999 SCT047 14/09 Q1001
22:25
V
14 °C 10 km+ - 190° 190° 33 kt METAR EHMA 302025Z AUTO 19033KT 9999 NSC 14/09 Q1001
21:55
V
14 °C 10 km+ - 190° 190° 32 kt METAR EHMA 301955Z AUTO 19032KT 9999 FEW044 14/09 Q1002
21:25
V
14 °C 10 km+ - 180° 180° 29 kt METAR EHMA 301925Z AUTO 18029KT 9999 FEW044 14/09 Q1002
20:55
V
14 °C 10 km+ - 190° 190° 25 kt METAR EHMA 301855Z AUTO 19025KT 9999 FEW049 14/09 Q1003
20:25
V
14 °C 10 km+ - 190° 190° 24 kt METAR EHMA 301825Z AUTO 19024KT 9999 NSC 14/10 Q1004
19:55
V
14 °C 10 km+ - 190° 190° 22 kt METAR EHMA 301755Z AUTO 19022KT 9999 NSC 14/10 Q1004
19:25
V
14 °C 10 km+ - 200° 200° 25 kt METAR EHMA 301725Z AUTO 20025KT 170V270 9999 FEW029 14/10 Q1004
18:55
V
15 °C 10 km+ - Var Var 25 kt METAR EHMA 301655Z AUTO VRB25KT 9999 FEW029 15/10 Q1005
18:25
V
15 °C 10 km+ - 210° 210° 26 kt METAR EHMA 301625Z AUTO 21026KT 150V270 9999 FEW042 15/10 Q1005
17:55
V
15 °C 10 km+ - 210° 210° 24 kt METAR EHMA 301555Z AUTO 21024KT 170V260 9999 NSC 15/10 Q1005
17:25
V
15 °C 10 km+ - 200° 200° 22 kt METAR EHMA 301525Z AUTO 20022KT 180V240 9999 FEW030 SCT042 15/09 Q1005
16:55
V
15 °C 10 km+ 4.200 ft 210° 210° 21 kt METAR EHMA 301455Z AUTO 21021KT 140V270 9999 FEW026 SCT033 BKN042 15/09 Q1005
16:25
V
15 °C 10 km+ - Var Var 22 kt METAR EHMA 301425Z AUTO VRB22KT 9999 FEW023 SCT029 15/10 Q1006
15:55
V
15 °C 10 km+ - Var Var 22 kt METAR EHMA 301355Z AUTO VRB22KT 9999 FEW023 15/10 Q1006
15:25
V
15 °C 10 km+ - 210° 210° 18 kt METAR EHMA 301325Z AUTO 21018KT 9999 NCD 15/10 Q1006
14:55
V
15 °C 10 km+ - Var Var 18 kt METAR EHMA 301255Z AUTO VRB18KT 9999 FEW028 15/09 Q1006
14:25
V
15 °C 10 km+ - Var Var 19 kt METAR EHMA 301225Z AUTO VRB19KT 9999 FEW025 15/08 Q1007
13:55
V
15 °C 10 km+ - Var Var 17 kt METAR EHMA 301155Z AUTO VRB17KT 9999 FEW032 15/09 Q1007
13:25
V
15 °C 10 km+ - Var Var 14 kt METAR EHMA 301125Z AUTO VRB14KT 9999 NCD 15/09 Q1007
12:55
V
14 °C 10 km+ - 190° 190° 12 kt METAR EHMA 301055Z AUTO 19012KT 9999 NCD 14/09 Q1008
12:25
V
14 °C 10 km+ - 200° 200° 13 kt METAR EHMA 301025Z AUTO 20013KT 110V280 9999 NCD 14/09 Q1008
11:55
V
14 °C 10 km+ - Var Var 11 kt METAR EHMA 300955Z AUTO VRB11KT 9999 NCD 14/10 Q1008
11:25
V
13 °C 10 km+ - 200° 200° 10 kt METAR EHMA 300925Z AUTO 20010KT 9999 NCD 13/11 Q1008
10:55
V
12 °C 10 km+ - 200° 200° 10 kt METAR EHMA 300855Z AUTO 20010KT 9999 NCD 12/11 Q1008
10:25
V
12 °C 10 km+ - Var Var 11 kt METAR EHMA 300825Z AUTO VRB11KT 9999 NCD 12/10 Q1008
09:55
V
12 °C 10 km+ - Var Var 11 kt METAR EHMA 300755Z AUTO VRB11KT 9999 NCD 12/10 Q1008
09:25
V
11 °C 10 km+ - 170° 170° 10 kt METAR EHMA 300725Z AUTO 17010KT 9999 NCD 11/09 Q1008
08:55
V
11 °C 10 km+ - Var Var 8 kt METAR EHMA 300655Z AUTO VRB08KT 9999 NCD 11/09 Q1008
08:25
V
11 °C 10 km+ - Var Var 7 kt METAR EHMA 300625Z AUTO VRB07KT 9999 NCD 11/09 Q1008
07:55
V
12 °C 10 km+ - 240° 240° 7 kt METAR EHMA 300555Z AUTO 24007KT 9999 NCD 12/10 Q1008
07:25
V
12 °C 10 km+ - 230° 230° 7 kt METAR EHMA 300525Z AUTO 23007KT 9999 NCD 12/10 Q1008
06:55
V
13 °C 10 km+ - 230° 230° 6 kt METAR EHMA 300455Z AUTO 23006KT 9999 NCD 13/10 Q1007
06:25
V
13 °C 10 km+ - 230° 230° 4 kt METAR EHMA 300425Z AUTO 23004KT 9999 NCD 13/10 Q1007
05:55
V
13 °C 10 km+ - 230° 230° 4 kt METAR EHMA 300355Z AUTO 23004KT 9999 NSC 13/09 Q1007
05:25
V
13 °C 10 km+ - Var Var 6 kt METAR EHMA 300325Z AUTO VRB06KT 9999 NSC 13/09 Q1007
04:55
V
12 °C 10 km+ - 200° 200° 6 kt METAR EHMA 300255Z AUTO 20006KT 180V250 9999 NSC 12/09 Q1007
04:25
V
13 °C 10 km+ - 180° 180° 8 kt METAR EHMA 300225Z AUTO 18008KT 9999 NSC 13/08 Q1007
03:55
V
13 °C 10 km+ - 120° 120° 6 kt METAR EHMA 300155Z AUTO 12006KT 9999 FEW019CB SCT026 13/08 Q1007
03:25
M
13 °C 10 km+ 2.600 ft 100° 100° 5 kt METAR EHMA 300125Z AUTO 10005KT 9999 BKN026 BKN030 BKN036 13/08 Q1007
02:55
M
13 °C 10 km+ 2.700 ft 100° 100° 7 kt METAR EHMA 300055Z AUTO 10007KT 9999 FEW016 FEW017CB BKN027 BKN038 13/08 Q1007
02:25
V
13 °C 10 km+ 3.000 ft 060° 060° 13 kt METAR EHMA 300025Z AUTO 06013KT 9999 FEW016/// SCT027/// BKN030/// 13/09 Q1007
01:55
V
13 °C 10 km+ 3.800 ft 270° 270° 7 kt METAR EHMA 292355Z AUTO 27007KT 240V300 9999 SCT028 SCT032 BKN038 13/10 Q1007 REDZ
01:25
V
13 °C 10 km+ - 260° 260° 6 kt METAR EHMA 292325Z AUTO 26006KT 9999 FEW028 13/10 Q1007
00:55
V
13 °C 10 km+ - 270° 270° 4 kt METAR EHMA 292255Z AUTO 27004KT 9999 FEW027 13/10 Q1007
00:25
V
13 °C 10 km+ - 260° 260° 5 kt METAR EHMA 292225Z AUTO 26005KT 9999 FEW028/// 13/10 Q1007

29. September 2022

Uhrzeit Code Wetter Temp. Sichtweite Wolkendecke Wind METAR/SPECI
23:55
V
13 °C 10 km+ - 260° 260° 5 kt METAR EHMA 292155Z AUTO 26005KT 9999 FEW026 13/10 Q1007
23:25
V
13 °C 10 km+ - 270° 270° 5 kt METAR EHMA 292125Z AUTO 27005KT 9999 FEW001 13/10 Q1006
22:55
V
13 °C 10 km+ - 240° 240° 3 kt METAR EHMA 292055Z AUTO 24003KT 9999 -DZ FEW001 FEW015CB 13/10 Q1006 REDZ
22:25
V
13 °C 10 km+ - Var Var 2 kt METAR EHMA 292025Z AUTO VRB02KT 9999 FEW015CB 13/10 Q1006
21:55
V
13 °C 10 km+ - 110° 110° 5 kt METAR EHMA 291955Z AUTO 11005KT 9999 FEW024 13/10 Q1006
21:25
V
13 °C 10 km+ - 050° 050° 3 kt METAR EHMA 291925Z AUTO 05003KT 010V100 9999 FEW001 FEW015CB SCT046 13/10 Q1005
20:55
V
12 °C 10 km+ - 050° 050° 6 kt METAR EHMA 291855Z AUTO 05006KT 9999 -SHRA FEW001 FEW015CB SCT046 12/09 Q1005 REDZ
20:25
V
13 °C 10 km+ - 340° 340° 6 kt METAR EHMA 291825Z AUTO 34006KT 9999 -RADZ FEW001 FEW015CB 13/09 Q1005
19:55
V
12 °C 10 km+ - 350° 350° 7 kt METAR EHMA 291755Z AUTO 35007KT 9999 -SHRA FEW015CB 12/09 Q1005 RERA
19:25
V
12 °C 10 km+ - 010° 010° 12 kt METAR EHMA 291725Z AUTO 01012KT 9999 SHRA FEW015CB 12/09 Q1005
18:55
V
14 °C 10 km+ 4.900 ft 350° 350° 9 kt METAR EHMA 291655Z AUTO 35009KT 9999 FEW020CB SCT040 BKN049 14/09 Q1004
18:25
V
13 °C 9 km 3.400 ft 350° 350° 7 kt METAR EHMA 291625Z AUTO 35007KT 300V010 9000 -RADZ FEW021 SCT025 BKN034 13/09 Q1004
17:55
V
14 °C 10 km+ 3.100 ft 360° 360° 8 kt METAR EHMA 291555Z AUTO 36008KT 9999 FEW025 BKN031 BKN036 14/09 Q1003
17:25
V
14 °C 10 km+ - 260° 260° 4 kt METAR EHMA 291525Z AUTO 26004KT 220V310 9999 SCT030 SCT038 14/09 Q1003
16:55
V
13 °C 10 km+ 3.600 ft 250° 250° 4 kt METAR EHMA 291455Z AUTO 25004KT 9999 FEW016CB SCT031 BKN036 13/09 Q1003
16:25
V
13 °C 8 km 3.300 ft 340° 340° 7 kt METAR EHMA 291425Z AUTO 34007KT 310V030 8000 SHRA FEW023 SCT028 BKN033 13/09 Q1003 REDZ
15:55
V
14 °C 10 km+ - 290° 290° 4 kt METAR EHMA 291355Z AUTO 29004KT 9999 FEW025 14/09 Q1003
15:25
V
14 °C 10 km+ - 270° 270° 5 kt METAR EHMA 291325Z AUTO 27005KT 9999 NSC 14/09 Q1002
13:25
V
13 °C 10 km+ - 280° 280° 5 kt METAR EHMA 291125Z AUTO 28005KT 9999 NSC 13/09 Q1002
12:55
V
13 °C 10 km+ - 260° 260° 6 kt METAR EHMA 291055Z AUTO 26006KT 9999 NSC 13/10 Q1002
12:25
V
13 °C 10 km+ - 260° 260° 5 kt METAR EHMA 291025Z AUTO 26005KT 9999 NSC 13/09 Q1002
11:55
V
13 °C 10 km+ - 260° 260° 6 kt METAR EHMA 290955Z AUTO 26006KT 9999 FEW049 13/10 Q1002
11:25
V
12 °C 10 km+ - 240° 240° 7 kt METAR EHMA 290925Z AUTO 24007KT 9999 FEW049 12/10 Q1001
10:55
V
12 °C 10 km+ - 240° 240° 7 kt METAR EHMA 290855Z AUTO 24007KT 9999 NSC 12/10 Q1001
10:25
V
11 °C 10 km+ - 250° 250° 5 kt METAR EHMA 290825Z AUTO 25005KT 9999 FEW014 SCT047 11/10 Q1001
09:55
V
11 °C 10 km+ - 250° 250° 5 kt METAR EHMA 290755Z AUTO 25005KT 9999 FEW014 SCT047 11/10 Q1001
09:25
V
10 °C 10 km+ - 230° 230° 6 kt METAR EHMA 290725Z AUTO 23006KT 9999 FEW031 10/09 Q1000
08:55
L
10 °C 0 m - 230° 230° 7 kt METAR EHMA 290655Z AUTO 23007KT //// // FEW015CB 10/09 Q1000 RE//
08:25
L
10 °C 0 m - 210° 210° 7 kt METAR EHMA 290625Z AUTO 21007KT //// // NSC 10/09 Q1000 RE//
07:55
L
10 °C 0 m - 220° 220° 6 kt METAR EHMA 290555Z AUTO 22006KT //// // NSC 10/09 Q1000 RE//
07:25
L
10 °C 0 m - 220° 220° 8 kt METAR EHMA 290525Z AUTO 22008KT //// // NSC 10/09 Q0999 RE//
06:55
L
10 °C 0 m - 210° 210° 8 kt METAR EHMA 290455Z AUTO 21008KT //// // NSC 10/09 Q0999 RE//
06:25
L
10 °C 0 m - Var Var 9 kt METAR EHMA 290425Z AUTO VRB09KT //// // NSC 10/09 Q0999 RE//
05:55
L
10 °C 0 m - Var Var 9 kt METAR EHMA 290355Z AUTO VRB09KT //// // NSC 10/09 Q0999 RE//
05:25
L
10 °C 0 m - 210° 210° 10 kt METAR EHMA 290325Z AUTO 21010KT 120V280 //// // NSC 10/09 Q0999 RE//
04:55
L
10 °C 0 m - Var Var 9 kt METAR EHMA 290255Z AUTO VRB09KT //// // NSC 10/09 Q0999 RE//
04:25
L
10 °C 0 m - Var Var 9 kt METAR EHMA 290225Z AUTO VRB09KT //// // NSC 10/09 Q0999 RE//
03:55
L
10 °C 0 m - 200° 200° 6 kt METAR EHMA 290155Z AUTO 20006KT //// // NSC 10/09 Q0999 RE//
03:25
L
11 °C 0 m - 210° 210° 6 kt METAR EHMA 290125Z AUTO 21006KT 170V260 //// // NSC 11/10 Q0998 RE//
02:55
L
12 °C 0 m - Var Var 5 kt METAR EHMA 290055Z AUTO VRB05KT //// // NSC 12/10 Q0999 RE//
02:25
L
12 °C 0 m - 210° 210° 5 kt METAR EHMA 290025Z AUTO 21005KT //// // NSC 12/10 Q0999 RE//
01:55
L
12 °C 0 m - 250° 250° 4 kt METAR EHMA 282355Z AUTO 25004KT //// // NSC 12/10 Q0999
01:25
V
12 °C 10 km+ - 250° 250° 6 kt METAR EHMA 282325Z AUTO 25006KT 9999 NSC 12/10 Q0999
00:55
V
11 °C 10 km+ - 210° 210° 6 kt METAR EHMA 282255Z AUTO 21006KT 9999 NSC 11/09 Q0999
00:25
V
12 °C 10 km+ - 210° 210° 6 kt METAR EHMA 282225Z AUTO 21006KT 9999 NSC 12/09 Q0998 RE//

28. September 2022

Uhrzeit Code Wetter Temp. Sichtweite Wolkendecke Wind METAR/SPECI
23:55
L
12 °C 0 m - 210° 210° 7 kt METAR EHMA 282155Z AUTO 21007KT //// // NSC 12/09 Q0998 RE//
Ältere Daten

Wir und Dritte verfolgen dein Internetverhalten auf unserer Website mit Cookies. Wenn du fortfährst, gehen wir davon aus, dass du mit unserer Cookie-Richtlinie einverstanden bist. Mehr erfahren